EHI
14 17 23 28 25 21 22 23 19 14 11 9 7 6 9 8 7 17 40 59 68 68 64 57 44 27 18 14 11 8 6 2 2 2 2 1 1 0 0 0 0 0 0
9 11 15 21 22 19 18 19 18 15 11 8 6 5 6 6 6 14 34 55 64 67 67 64 54 39 25 19 15 13 11 7 5 4 3 3 3 2 1 0 0 0 0
5 5 8 14 17 15 12 13 14 13 10 7 6 4 4 5 6 9 22 40 51 55 60 64 61 52 39 29 21 19 20 18 13 8 4 4 4 4 3 1 1 0 0
2 3 5 9 11 9 8 9 10 12 10 8 6 4 4 5 5 5 10 20 30 38 45 51 53 50 43 35 28 26 28 29 25 16 8 5 4 5 5 3 2 1 0
0 1 2 3 4 4 5 6 9 9 8 7 4 2 3 4 4 4 4 7 15 25 30 34 37 36 32 30 31 35 39 40 36 28 18 10 6 5 4 3 3 1 0
0 0 0 0 0 1 3 4 5 5 4 3 1 0 1 2 2 2 3 3 8 14 18 21 26 26 22 22 27 37 46 47 45 39 31 21 13 7 4 3 2 1 1
0 0 0 0 0 0 1 1 1 1 1 1 0 0 1 1 0 1 2 2 3 6 9 13 20 23 21 17 18 29 41 48 51 49 43 35 24 14 6 2 1 1 0
0 0 0 0 0 0 0 0 0 0 0 0 0 0 0 0 0 0 1 1 1 2 5 7 12 17 18 17 12 17 28 39 47 53 52 47 36 21 10 3 1 0 0
0 0 0 0 0 0 0 0 0 0 0 0 0 0 0 0 0 0 0 0 0 0 1 3 5 7 10 12 10 9 14 23 35 46 52 51 42 26 14 6 2 0 0
0 0 0 0 0 0 0 0 0 0 0 0 0 0 0 0 0 0 0 0 0 0 0 1 2 3 4 6 6 4 5 11 21 31 41 46 41 29 16 8 4 2 1
0 0 0 0 0 0 0 0 0 0 0 0 0 0 0 0 0 0 0 0 0 0 0 0 1 2 3 3 2 1 2 5 11 18 27 34 35 29 19 11 7 4 3
0 0 0 0 0 0 0 0 0 0 0 0 0 0 0 0 0 0 0 0 0 0 0 0 1 2 2 1 0 0 1 2 4 9 14 21 25 25 20 13 9 8 6
0 0 0 0 0 0 0 0 0 0 0 0 0 0 0 0 0 0 0 0 0 0 0 0 1 2 2 2 1 0 0 0 1 3 6 11 15 17 16 12 9 8 7
0 0 0 0 0 0 0 0 0 0 0 0 0 0 0 0 0 0 0 0 0 0 0 0 1 2 2 2 1 0 0 0 0 0 2 5 8 9 9 7 5 3 3
0 0 0 0 0 0 0 0 0 0 0 0 0 0 0 0 0 0 0 0 0 0 0 0 0 1 1 1 0 0 0 0 0 0 0 1 2 3 3 2 1 0 0
0 0 0 0 0 0 0 0 0 0 0 0 0 0 0 0 0 0 0 0 0 0 0 0 0 0 0 0 0 0 0 0 0 0 0 0 0 1 1 0 0 0 0
0 0 0 0 0 0 0 0 0 0 0 0 0 0 0 0 0 0 0 0 0 0 0 0 0 0 0 0 0 0 0 0 0 0 0 0 0 0 0 0 0 0 0
0 0 0 0 0 0 0 0 0 0 0 0 0 0 0 0 0 0 0 0 0 0 0 0 0 0 0 0 0 0 0 0 0 0 0 0 0 0 0 0 0 0 0
0 0 0 0 0 0 0 0 0 0 0 0 0 0 0 0 0 0 0 0 0 0 0 0 0 0 0 0 0 0 0 0 0 0 0 0 0 0 0 0 0 0 0
0 0 0 0 0 0 0 0 0 0 0 0 0 0 0 0 0 0 0 0 0 0 0 0 0 0 0 0 0 0 0 0 0 0 0 0 0 0 0 0 0 0 0
0 0 0 0 0 0 0 0 0 0 0 0 0 0 0 0 0 0 0 0 0 0 0 0 0 0 0 0 0 0 0 0 0 0 0 0 0 0 0 0 0 0 0
2 1 0 0 0 0 0 0 0 0 0 0 0 0 0 0 0 0 0 0 0 0 0 0 0 0 0 0 0 0 0 0 0 0 0 0 0 0 0 0 0 0 0
5 4 2 0 0 0 0 0 0 0 0 0 0 0 0 0 0 0 0 0 0 0 0 0 0 0 0 0 0 0 0 0 0 0 0 0 0 0 0 0 0 0 0
8 6 2 0 0 0 0 0 0 0 0 0 0 0 0 0 0 0 0 0 0 0 0 0 0 0 0 0 0 0 0 0 0 0 0 0 0 0 0 0 0 0 0
9 5 1 0 0 0 0 0 0 0 0 0 0 0 0 0 0 0 0 0 0 0 0 0 0 0 0 0 0 0 0 0 0 0 0 0 0 0 0 0 0 0 0
8 4 1 1 1 1 0 0 0 0 0 0 0 0 0 0 0 0 0 0 0 0 0 0 0 0 0 0 0 0 0 0 0 0 0 0 0 0 0 0 0 0 0
Wind_Speed
3 3 1 1 2 1 2 2 2 2 2 2 3 4 4 5 6 5 4 14 15 15 16 16 16 16 16 15 15 14 14 14 13 13 12 12 12 13 12 12 11 10 10
4 3 2 2 2 1 1 1 2 2 2 2 4 4 4 5 6 5 3 8 13 15 15 17 17 17 17 17 17 16 16 16 15 14 14 13 13 13 13 13 12 11 11
5 5 4 2 2 2 1 2 2 2 3 3 4 4 4 5 6 6 5 4 7 13 16 17 17 17 18 19 19 18 18 17 16 16 15 15 15 14 14 13 13 12 12
5 5 4 3 3 3 2 2 2 2 2 2 2 3 3 4 6 6 5 5 5 7 13 18 18 18 18 19 20 20 19 19 18 17 17 16 16 16 15 15 14 14 13
5 5 4 3 3 3 3 4 3 3 3 3 4 4 4 4 5 7 6 7 7 6 5 12 19 19 20 21 20 20 20 20 20 20 19 19 18 17 17 16 16 15 14
5 5 4 5 5 4 3 4 4 3 3 3 6 5 4 5 4 5 6 6 6 8 7 7 9 14 20 19 19 20 21 21 21 22 21 21 20 19 18 18 17 17 16
4 4 4 5 4 3 4 5 4 5 4 3 3 4 5 6 6 5 5 4 4 5 5 6 5 6 8 18 19 19 21 22 22 22 22 22 22 20 20 19 19 18 18
3 4 5 4 5 4 4 3 3 3 4 4 3 4 4 4 3 3 2 3 4 2 3 5 5 6 6 5 11 20 21 21 22 23 23 23 22 22 21 21 20 19 19
2 3 3 3 4 5 4 4 4 4 4 4 4 2 3 3 5 4 2 1 1 2 2 3 4 6 8 6 6 15 21 21 22 23 24 23 23 22 22 22 22 21 20
2 1 2 3 3 4 5 5 6 5 4 4 4 3 2 2 2 4 4 2 2 3 3 4 4 4 5 4 5 8 15 20 22 22 23 23 24 23 23 24 24 23 22
3 3 1 1 2 4 3 4 4 4 4 4 4 5 5 4 3 4 5 4 3 2 3 4 3 3 3 3 4 7 10 14 18 20 21 22 23 24 25 25 26 25 24
2 3 2 1 2 3 3 4 4 5 4 4 4 4 4 4 4 3 4 5 4 3 3 3 3 3 3 3 5 7 7 9 12 16 18 19 21 23 25 26 26 26 26
2 2 2 1 2 3 4 4 4 5 5 5 4 4 4 4 4 4 4 5 5 4 4 4 3 3 3 2 3 5 7 8 10 13 15 16 18 20 23 25 26 26 25
3 0 1 2 4 4 5 4 4 5 5 4 5 5 3 4 4 4 4 4 5 5 4 5 2 2 2 2 3 5 5 9 10 12 13 14 16 17 20 22 23 24 23
4 3 2 3 4 4 5 5 4 5 5 5 5 5 4 4 4 4 4 4 4 6 5 5 3 2 2 2 4 4 4 7 10 11 13 14 15 16 18 20 21 21 21
5 4 5 5 5 5 5 5 5 6 5 5 5 5 5 4 4 4 4 4 4 5 6 4 4 4 3 4 4 4 5 8 11 12 13 14 15 16 17 18 19 20 21
5 5 5 5 5 6 6 5 6 6 6 6 6 6 6 6 4 4 4 4 5 4 6 5 4 4 4 5 4 4 4 5 6 12 14 14 15 15 16 18 19 20 20
5 6 5 5 6 7 6 6 6 7 6 6 6 7 7 6 6 5 5 5 5 5 6 7 6 5 6 6 5 5 5 6 5 9 13 14 14 15 16 17 18 19 19
5 5 5 6 6 6 6 6 6 6 7 7 7 7 7 7 6 5 5 5 5 6 5 5 6 5 5 5 5 6 6 5 5 6 9 11 13 14 15 15 16 17 18
5 5 6 6 6 6 6 7 7 6 6 6 6 7 7 7 7 6 6 6 6 6 6 6 6 6 5 5 5 4 4 4 4 4 5 5 8 12 14 15 16 17 18
6 5 5 5 6 6 7 5 5 7 5 5 6 7 8 10 10 8 7 5 5 4 5 5 6 6 5 4 4 3 4 4 4 4 3 4 4 5 7 11 14 15 16
5 5 6 6 7 8 3 1 3 5 6 7 7 7 9 10 12 14 14 12 10 7 6 6 6 6 6 5 4 5 4 3 3 2 3 4 4 5 5 5 10 13 15
5 5 6 6 7 7 7 7 8 6 7 7 8 8 10 11 9 6 9 13 14 16 14 9 9 9 8 7 6 6 5 5 5 4 2 4 3 4 3 4 9 12 13
4 5 6 6 7 8 9 10 10 8 9 9 10 10 10 9 11 8 7 7 7 9 11 11 11 11 10 7 6 5 6 6 6 5 4 4 3 2 2 1 5 9 11
5 6 7 7 8 8 9 11 11 7 8 10 10 11 10 10 11 11 8 7 7 7 11 14 14 14 15 13 8 4 5 6 6 5 3 3 2 1 1 1 2 5 8
6 7 8 7 8 8 8 11 12 7 8 9 8 9 12 13 12 10 8 7 8 7 7 8 8 10 11 12 14 10 7 7 7 5 4 3 3 2 2 1 1 2 4
Wind_Direction
357 357 332 311 288 269 241 233 238 263 270 270 257 247 237 252 268 278 175 178 181 181 183 187 193 198 198 198 198 197 195 193 190 187 186 185 181 179 177 175 171 167 165
7 350 320 300 289 280 275 266 267 255 248 250 255 262 256 252 252 258 240 191 194 194 194 194 198 203 204 203 202 201 200 198 194 191 189 188 186 184 184 182 179 176 173
360 344 322 317 351 338 328 284 281 267 256 248 243 249 244 243 249 248 247 222 204 208 207 204 202 205 208 208 206 205 203 201 197 195 193 191 189 188 188 187 185 183 180
354 339 329 1 354 329 308 288 261 286 302 313 297 278 263 246 245 240 235 233 225 218 212 211 209 208 209 211 211 209 206 203 200 197 196 195 193 191 190 190 189 187 185
2 350 333 350 333 326 325 322 17 9 342 335 305 270 258 245 242 244 232 232 230 225 216 209 212 212 213 215 215 213 209 206 204 202 200 199 198 196 194 193 192 191 190
17 354 319 8 352 336 343 348 349 332 300 277 284 295 289 272 254 243 239 234 225 222 223 225 207 217 219 220 220 217 214 209 207 206 204 203 202 200 197 196 195 195 194
11 324 343 351 335 343 345 332 341 325 306 282 282 288 277 258 244 232 229 235 238 231 221 221 213 207 212 220 224 222 218 214 211 209 207 205 204 202 200 199 198 197 197
355 339 25 340 351 341 316 321 329 315 312 322 314 308 303 296 333 267 210 217 231 239 252 245 226 219 222 209 217 223 223 220 216 212 209 207 206 203 202 201 200 200 200
339 342 342 341 346 325 339 345 331 330 320 314 298 296 309 333 338 319 323 248 205 225 243 255 249 230 223 220 215 218 222 222 221 217 213 209 207 204 203 203 202 202 202
275 307 336 350 348 326 324 330 21 342 329 318 318 313 295 306 302 316 324 321 248 228 230 243 254 250 234 226 226 225 223 222 223 223 219 213 209 206 204 204 205 205 204
224 218 192 358 331 305 328 354 334 329 319 312 322 327 325 310 265 262 292 305 303 268 233 231 233 239 242 231 235 237 235 229 226 226 223 219 213 209 207 207 207 208 208
238 186 174 122 309 308 343 334 316 306 309 318 317 308 307 305 304 300 296 301 299 297 285 263 246 235 235 230 243 247 233 234 232 228 225 222 218 213 210 209 210 211 210
303 98 77 72 297 304 296 282 282 281 286 289 291 285 294 303 304 301 296 297 298 297 290 271 244 221 229 215 232 237 243 239 235 230 227 223 220 217 213 211 212 212 211
304 357 223 237 247 258 274 283 290 284 278 277 277 280 281 278 280 286 283 291 296 294 286 279 265 225 216 202 205 226 247 237 233 231 228 226 221 218 215 212 211 211 211
280 296 290 272 262 258 261 268 268 277 283 277 274 278 272 279 284 282 283 275 278 288 288 295 297 272 233 216 194 221 245 245 235 230 228 227 224 218 215 212 210 209 208
282 278 270 271 270 264 258 254 261 264 267 267 261 262 269 271 281 293 293 288 277 273 281 288 286 275 271 271 224 229 245 251 241 234 229 225 224 221 216 213 210 209 208
262 266 265 263 264 264 259 253 252 259 264 264 266 265 259 260 266 276 284 287 285 282 281 285 287 293 285 275 260 245 253 243 239 233 229 224 221 220 218 215 212 211 210
253 259 260 263 263 265 264 264 265 267 265 266 266 265 264 264 255 256 264 273 278 280 278 280 283 281 276 272 259 246 252 253 242 235 226 223 220 217 215 214 214 212 212
258 263 265 268 270 270 269 268 265 264 264 265 266 265 262 261 260 256 259 265 273 279 284 283 283 275 271 269 269 260 251 252 247 239 223 221 220 218 215 212 213 213 213
258 261 262 264 267 270 268 266 265 262 261 264 265 266 264 260 257 254 256 254 260 269 273 275 275 274 267 264 258 257 258 247 243 237 225 218 220 219 218 213 212 213 213
264 266 268 270 271 271 269 272 272 270 272 277 277 273 268 263 258 251 255 256 267 274 279 282 281 282 276 274 272 270 264 262 247 222 217 217 214 218 216 218 216 214 212
252 257 263 268 270 274 264 200 259 290 290 283 279 276 275 268 257 240 238 241 243 251 260 268 278 283 293 307 317 316 309 298 284 241 217 230 214 220 215 211 209 209 210
265 263 263 265 266 268 258 233 231 254 267 267 268 270 274 274 280 259 241 239 242 244 241 247 260 267 277 288 308 314 309 302 287 288 262 249 228 230 218 212 200 202 206
259 264 266 269 267 266 257 236 227 240 260 262 260 259 260 264 270 270 268 257 247 245 239 234 239 248 256 261 266 278 287 288 277 260 232 245 228 222 204 195 197 199 202
253 258 262 259 259 260 249 229 219 244 256 260 258 257 254 253 253 248 248 254 258 260 260 253 235 236 242 246 246 261 272 275 276 270 228 211 216 200 197 208 196 197 198
250 256 257 255 258 261 252 230 213 238 257 262 261 256 254 251 248 232 231 243 253 259 269 280 269 254 249 248 238 230 239 252 262 266 230 196 191 180 201 199 192 185 185